Location: Feigenhofen
(48.4939°N, 10.7793°E)
Time: 16:48:53
(UTC+00:00)

Cosmos 1553 Rocket - Pass Details

Date: 26 May 2022
Orbit: 942 x 1007 km, 82.9° (Epoch: 28 June)

Event Time Altitude Azimuth Distance (km) Brightness Sun altitude
Exits shadow 00:03:21 30° 219° (SW) 1,632 4.7 -19.5°
Maximum altitude 00:06:16 56° 284° (WNW) 1,130 4.3 -19.4°
Drops below altitude 10° 00:12:23 10° 2° (N) 2,721 7.5 -19.2°
Sets 00:14:59 0° 7° (N) 3,683 8.6 -19.1°
